FW4338 Weather Reports


Display with metric or nautical units.
time (UTC)temp
F
wind
direction
speed
MPH
gust
MPH
rain 1hr
in
rain 24hr
in
rain mn
in
humidity
%
barometer
mb
20260906122359 65 22 0.0 0.0 0.00 0.00 0.00 98 1083.1
20260906120557 65 22 0.0 0.0 0.00 0.00 0.00 99 1082.9
20260906115600 65 22 0.0 0.0 0.00 0.00 0.00 99 1082.8
20260906113657 65 22 1.0 1.0 0.00 0.00 0.00 98 1082.3
20260906111757 65 22 0.0 0.0 0.00 0.00 0.00 99 1082.3
20260906110755 65 22 0.0 0.0 0.00 0.00 0.00 99 1082.3
20260906104857 65 22 0.0 1.0 0.00 0.00 0.00 98 1082.1
20260906103956 65 22 1.0 1.0 0.00 0.00 0.00 99 1081.9
20260906102957 65 22 1.0 2.0 0.00 0.00 0.00 99 1082.0
20260906102056 65 22 1.0 1.0 0.00 0.00 0.00 98 1081.8
20260906101942 65 22 0.0 1.0 0.00 0.00 0.00 98 1081.8
20260906100957 65 22 2.0 3.0 0.00 0.00 0.00 98 1081.6
20260906095100 66 22 1.0 2.0 0.00 0.00 0.00 98 1081.6
20260906093157 66 22 0.0 0.0 0.00 0.00 0.00 97 1081.7
20260906092159 66 22 1.0 3.0 0.00 0.00 0.00 97 1081.6
20260906091242 66 22 0.0 2.0 0.00 0.00 0.00 98 1081.3
20260906090257 65 22 2.0 5.0 0.00 0.00 0.00 97 1081.5
20260906085258 65 22 1.0 3.0 0.00 0.00 0.00 98 1081.4
20260906084357 65 22 1.0 2.0 0.00 0.00 0.00 97 1081.5
20260906082457 65 22 0.0 0.0 0.00 0.00 0.00 97 1081.5
20260906081555 65 22 0.0 0.0 0.00 0.00 0.00 97 1081.4
20260906080556 65 22 0.0 0.0 0.00 0.00 0.00 97 1081.3
20260906075641 65 22 0.0 0.0 0.00 0.00 0.00 96 1081.3
20260906075557 65 22 0.0 0.0 0.00 0.00 0.00 96 1081.2
20260906074557 65 22 0.0 0.0 0.00 0.00 0.00 97 1081.4
20260906073557 65 22 0.0 0.0 0.00 0.00 0.00 96 1081.4
20260906072657 65 22 0.0 0.0 0.00 0.00 0.00 97 1081.5
20260906071739 66 22 0.0 0.0 0.00 0.00 0.00 97 1081.4
20260906065758 66 22 0.0 0.0 0.00 0.00 0.00 96 1081.4
20260906064756 66 22 0.0 0.0 0.00 0.00 0.00 96 1081.6
20260906063741 66 22 0.0 0.0 0.00 0.00 0.00 95 1081.2
20260906062756 66 22 0.0 0.0 0.00 0.00 0.00 96 1081.5
20260906061756 66 22 0.0 0.0 0.00 0.00 0.00 96 1081.5
20260906060840 67 22 0.0 0.0 0.00 0.00 0.00 96 1081.5
20260906055858 67 22 0.0 0.0 0.00 0.00 0.00 96 1081.5
20260906052858 68 22 0.0 0.0 0.00 0.00 0.00 95 1081.2
20260906050858 69 22 0.0 0.0 0.00 0.00 0.00 94 1081.1
20260906045957 69 22 0.0 0.0 0.00 0.00 0.00 95 1080.9
20260906044055 70 22 0.0 1.0 0.00 0.00 0.00 94 1080.8
20260906043056 70 337 0.0 0.0 0.00 0.00 0.00 94 1080.8
20260906040253 70 22 0.0 1.0 0.00 0.00 0.00 95 1080.4
20260906035256 70 22 1.0 2.0 0.00 0.00 0.00 95 1080.3
20260906034257 69 22 2.0 3.0 0.00 0.00 0.00 95 1080.3
20260906033256 69 17 3.0 5.0 0.00 0.00 0.00 93 1080.3
20260906032254 69 22 2.0 5.0 0.00 0.00 0.00 94 1080.3
20260906031339 69 9 2.0 4.0 0.00 0.00 0.00 94 1080.4
20260906030357 69 22 2.0 3.0 0.00 0.00 0.00 92 1080.2
20260906025355 69 22 0.0 1.0 0.00 0.00 0.00 92 1080.3
20260906024438 69 31 3.0 6.0 0.00 0.00 0.00 91 1080.2
20260906023456 70 351 2.0 4.0 0.00 0.00 0.00 92 1080.1
20260906021555 70 48 2.0 5.0 0.00 0.00 0.00 91 1080.1
20260906020555 70 25 2.0 6.0 0.00 0.00 0.00 91 1080.2
20260906015556 71 22 2.0 3.0 0.00 0.00 0.00 91 1080.3
20260906013556 71 360 1.0 4.0 0.00 0.00 0.00 90 1080.2
20260906012556 71 22 0.0 1.0 0.00 0.00 0.00 91 1080.1
20260906011554 71 14 3.0 6.0 0.00 0.00 0.00 90 1080.3
20260906010556 71 22 1.0 5.0 0.00 0.00 0.00 90 1080.2
20260906005637 71 22 2.0 4.0 0.00 0.00 0.00 91 1080.1
20260906004656 71 34 4.0 11.0 0.00 0.00 0.00 91 1079.8
20260906003755 71 21 4.0 7.0 0.00 0.00 0.00 90 1079.7
20260906002756 71 359 2.0 5.0 0.00 0.00 0.00 90 1079.7
20260906001839 71 30 3.0 8.0 0.00 0.00 0.00 89 1079.7
20260906000855 71 22 4.0 9.0 0.00 0.00 0.00 89 1079.5
20260905235856 72 21 6.0 11.0 0.00 0.00 0.00 87 1079.6
20260905234955 72 34 2.0 5.0 0.00 0.00 0.00 88 1079.7
20260905233138 72 30 6.0 15.0 0.00 0.00 0.00 88 1079.7
20260905232155 71 35 3.0 6.0 0.00 0.00 0.00 89 1079.6
20260905230254 72 22 1.0 2.0 0.00 0.00 0.00 87 1079.6
20260905224339 72 24 5.0 7.0 0.00 0.00 0.00 85 1079.5
20260905222355 74 52 4.0 8.0 0.00 0.00 0.00 84 1079.3
20260905221355 74 23 4.0 9.0 0.00 0.00 0.00 82 1079.2
20260905215455 76 71 2.0 4.0 0.00 0.00 0.00 81 1078.9
20260905214553 77 22 3.0 5.0 0.00 0.00 0.00 80 1078.9
20260905213638 77 61 3.0 7.0 0.00 0.00 0.00 78 1078.7
20260905212656 78 31 4.0 8.0 0.00 0.00 0.00 77 1078.5
20260905211754 77 24 3.0 7.0 0.00 0.00 0.00 78 1078.5
20260905210755 77 44 0.0 3.0 0.00 0.00 0.00 78 1078.5
20260905205757 78 31 3.0 5.0 0.00 0.00 0.00 78 1078.6
20260905204837 79 41 3.0 7.0 0.00 0.00 0.00 77 1078.5
20260905203856 80 44 4.0 7.0 0.00 0.00 0.00 76 1078.4
20260905200955 81 18 4.0 10.0 0.00 0.00 0.00 70 1078.4
20260905191954 78 22 1.0 6.0 0.00 0.00 0.00 81 1078.8
20260905191038 78 9 2.0 6.0 0.00 0.00 0.00 83 1078.9
20260905184056 76 17 2.0 4.0 0.00 0.00 0.00 86 1079.2
20260905183055 76 348 1.0 4.0 0.00 0.00 0.00 85 1079.4
20260905182138 75 67 1.0 2.0 0.00 0.00 0.00 86 1079.2
20260905181138 76 20 3.0 5.0 0.00 0.00 0.00 85 1079.2
20260905180153 76 18 4.0 4.0 0.00 0.00 0.00 85 1079.2
20260905175153 76 22 2.0 5.0 0.00 0.00 0.00 84 1079.0
20260905174239 76 20 4.0 9.0 0.00 0.00 0.00 84 1078.8
20260905173255 76 16 2.0 9.0 0.00 0.00 0.00 84 1079.0
20260905172338 76 32 3.0 6.0 0.00 0.00 0.00 86 1078.9
20260905170353 75 22 0.0 2.0 0.00 0.02 0.00 87 1079.3
20260905165354 75 5 3.0 7.0 0.00 0.08 0.00 88 1079.2
20260905164354 75 22 0.0 1.0 0.00 0.22 0.00 88 1079.5
20260905163439 75 2 1.0 3.0 0.00 0.22 0.00 88 1079.3
20260905162539 75 22 3.0 6.0 0.00 0.22 0.00 88 1079.3
20260905161554 75 64 2.0 5.0 0.00 0.22 0.00 87 1079.3
20260905160553 75 349 1.0 5.0 0.00 0.22 0.00 87 1079.2
20260905155555 75 22 3.0 7.0 0.00 0.22 0.00 87 1079.2
20260905153653 75 22 1.0 4.0 0.00 0.22 0.00 87 1078.9
20260905152655 75 23 5.0 8.0 0.00 0.22 0.00 88 1078.8
20260905151653 75 28 2.0 5.0 0.00 0.22 0.00 90 1078.8
20260905150654 74 26 2.0 4.0 0.00 0.22 0.00 91 1078.7
20260905145656 74 21 4.0 8.0 0.00 0.22 0.00 90 1078.6
20260905144654 75 22 1.0 2.0 0.00 0.22 0.00 91 1078.6
20260905143655 75 23 1.0 3.0 0.00 0.22 0.00 91 1078.5
20260905142656 75 3 1.0 5.0 0.00 0.22 0.00 91 1078.5
20260905140654 74 18 2.0 6.0 0.00 0.22 0.00 93 1078.3
20260905135752 74 45 1.0 3.0 0.00 0.22 0.00 94 1078.3
20260905134752 73 32 2.0 3.0 0.00 0.22 0.00 95 1078.3
20260905133755 73 26 2.0 4.0 0.00 0.22 0.00 96 1078.3
20260905132752 74 22 1.0 2.0 0.00 0.22 0.00 96 1078.5
20260905131757 73 17 3.0 5.0 0.00 0.22 0.00 97 1078.6
20260905130854 73 21 3.0 7.0 0.00 0.22 0.00 98 1078.2
20260905125855 73 14 2.0 4.0 0.00 0.22 0.00 98 1077.9
20260905124856 73 360 1.0 3.0 0.00 0.22 0.00 98 1078.1